Details From KSAN - San Diego Intl
To YBMA - Mount Isa
Flight Number -
Tags Decoded
Created
Modified
Stats Distance 6,722 nm / 12,449 km
Max Altitude 0 ft / 0 m
Waypoints 7
Social Downloads 0
Likes 0
Share VATSIM

Download

Looking for another format? Having issues loading an existing format? Contact us
Advertisement - Login to hide

Notes

Decoded

Route

KSAN ETNIC SELYY NEWEL KASKU NIPOK YBMA

ID Type Via Altitude Latitude Longitude Leg Dist Tot Dist Heading (true) Name
O KSAN APT - 0 ft / 0 m 32.73712˚ -117.20435˚ - 0 nm - -
ETNIC FIX - 0 ft / 0 m 27.91167˚ -138.85667˚ 1156 nm 1156 nm 261° / 250° -
SELYY FIX - 0 ft / 0 m 20.51267˚ -158.20483˚ 1147 nm 2304 nm 251° / 243° -
NEWEL FIX - 0 ft / 0 m 10.44667˚ -175.00000˚ 1143 nm 3447 nm 241° / 236° -
KASKU FIX - 0 ft / 0 m 0.42167˚ 170.00000˚ 1079 nm 4526 nm 237° / 236° -
NIPOK FIX - 0 ft / 0 m -9.92833˚ 155.00000˚ 1090 nm 5617 nm 235° / 236° -
O YBMA APT - 0 ft / 0 m -20.65894˚ 139.48442˚ 1104 nm 6722 nm 232° / 237° -

Altitude Profile

Advertisement - Login to hide

Weather


0- 5 10 15 20 25 30 35+ Temperature / ° C

Clouds and Precipitation
Forecast for 2017-12-18 18:00 UTC. Updated 2 hours ago

Ground ~20,000 ft ~40,000 ft Winds

KSAN

Details ICAO KSAN (SAN)
Name San Diego Intl
Region United States
Timezone America/Los_Angeles (UTC-8.0)
Stats Elevation 17 ft / 5 m (AMSL)
Location 32.733556° -117.189658°
Runways 1
Magnetic Variation 11.524° E

METAR

KSAN 181351Z 00000KT 10SM CLR 10/M03 A3013 RMK AO2 SLP203 T01001028

Decode

TAF

TAF AMD KSAN 181503Z 1815/1918 VRB04KT P6SM SKC FM182100 28008KT P6SM SKC FM190100 VRB04KT P6SM SKC

Decode

Departure Runways

ID Width Length Bearing (true) Bearing (mag) Surface Threshold Offset Overrun Length
09 200 ft / 61 m 9,387 ft / 2,861 m 106.07° 94.55° Asphalt 699 ft / 213 m 269 ft / 82 m
27 200 ft / 61 m 9,387 ft / 2,861 m 286.08° 274.56° Asphalt 1,811 ft / 552 m 0 ft / 0 m

YBMA

Details ICAO YBMA (ISA)
Name Mount Isa
Region Australia
Timezone Australia/Brisbane (UTC+10.0)
Stats Elevation 1,121 ft / 342 m (AMSL)
Location -20.666369° 139.488443°
Runways 1
Magnetic Variation 5.691° E

METAR

YBMA 181430Z AUTO 01007KT 9999 // NCD 29/12 Q1007

Decode

TAF

Not found

Destination Runways

ID Width Length Bearing (true) Bearing (mag) Surface Threshold Offset Overrun Length
16 148 ft / 45 m 8,859 ft / 2,700 m 167.80° 162.11° Asphalt 210 ft / 64 m 79 ft / 24 m
34 148 ft / 45 m 8,859 ft / 2,700 m 347.80° 342.11° Asphalt 213 ft / 65 m 49 ft / 15 m

Popular Alternatives